{"data":{"norad_id":65769,"epoch":"2026-05-25T02:54:44.043840Z","epoch_age_seconds":67662,"freshness":"FRESH","line1":"1 65769U 25217H   26145.12134310  .00002879  00000+0  44661-3 0  9992","line2":"2 65769  51.9054  43.7712 0001040 104.8459 255.2616 14.75842796 36491","mean_motion":14.75842796,"eccentricity":0.000104,"inclination_deg":51.9054,"raan_deg":43.7712,"arg_perigee_deg":104.8459,"mean_anomaly_deg":255.2616,"bstar":0.00044661,"rev_number":3649,"period_min":97.57136762146,"perigee_km":641.74705669629,"apogee_km":643.20734445001,"semimajor_km":7020.6142005731,"source":"CELESTRAK","updated_at":"2026-05-25T13:38:05.660447Z"}}